When you browse on this site, cookies collect data to enhance your experience and personalize the content and advertising you see.
Visit our Privacy Policy to learn more. By continuing to use the site, you agree to this use of cookies and data.
  • In Hungary
  • List of Countries
  • For 7 days
  • Water Temperature
  • Satellite Maps
  • Weather Map
  • News
  • Weather Widgets
  • user-avatar
    Login

    Hourly Weather Zaafrana

    Today, 17 January, Thursday

    Time Temperature Precipitation Wind Pressure Humidity
    00:00 +7°C° 0 mm 4 mps 750 mmHg 63%
    01:00 +6°C° 0 mm 4 mps 750 mmHg 66%
    02:00 +7°C° 0 mm 3 mps 750 mmHg 69%
    03:00 +5°C° 0 mm 3 mps 751 mmHg 70%
    04:00 +5°C° 0 mm 3 mps 751 mmHg 72%
    05:00 +5°C° 0 mm 3 mps 751 mmHg 74%
    06:00 +6°C° 0 mm 2 mps 751 mmHg 71%
    07:00 +7°C° 0 mm 2 mps 752 mmHg 69%
    08:00 +8°C° 0 mm 2 mps 752 mmHg 66%
    09:00 +10°C° 0 mm 1 mps 752 mmHg 61%
    10:00 +12°C° 0 mm 1 mps 752 mmHg 55%
    11:00 +13°C° 0 mm 1 mps 752 mmHg 49%
    12:00 +14°C° 0 mm 1 mps 752 mmHg 46%
    13:00 +15°C° 0 mm 1 mps 751 mmHg 43%
    14:00 +16°C° 0 mm 2 mps 751 mmHg 40%
    15:00 +15°C° 0 mm 2 mps 751 mmHg 43%
    16:00 +14°C° 0 mm 2 mps 751 mmHg 46%
    17:00 +14°C° 0 mm 2 mps 751 mmHg 48%
    18:00 +13°C° 0 mm 2 mps 751 mmHg 53%
    19:00 +12°C° 0 mm 2 mps 751 mmHg 58%
    20:00 +10°C° 0 mm 2 mps 751 mmHg 64%
    21:00 +10°C° 0 mm 2 mps 751 mmHg 68%
    22:00 +10°C° 0 mm 2 mps 751 mmHg 72%
    23:00 +9°C° 0 mm 2 mps 751 mmHg 76%

    Tomorrow, 18 January, Friday

    Time Temperature Precipitation Wind Pressure Humidity
    00:00 +9°C° 0 mm 2 mps 751 mmHg 78%
    01:00 +9°C° 0 mm 2 mps 751 mmHg 79%
    02:00 +9°C° 0 mm 2 mps 751 mmHg 80%
    03:00 +9°C° 0 mm 3 mps 751 mmHg 82%
    04:00 +9°C° 0 mm 3 mps 750 mmHg 83%
    05:00 +8°C° 0 mm 3 mps 750 mmHg 84%
    06:00 +9°C° 0 mm 2 mps 751 mmHg 82%
    07:00 +9°C° 0 mm 2 mps 751 mmHg 81%
    08:00 +10°C° 0 mm 2 mps 751 mmHg 80%
    09:00 +11°C° 0 mm 3 mps 751 mmHg 70%
    10:00 +13°C° 0 mm 3 mps 751 mmHg 61%
    11:00 +16°C° 0 mm 3 mps 751 mmHg 52%
    12:00 +16°C° 0 mm 3 mps 751 mmHg 48%
    13:00 +17°C° 0 mm 3 mps 750 mmHg 45%
    14:00 +18°C° 0 mm 3 mps 749 mmHg 42%
    15:00 +17°C° 0 mm 3 mps 749 mmHg 45%
    16:00 +16°C° 0 mm 3 mps 749 mmHg 48%
    17:00 +14°C° 0 mm 3 mps 749 mmHg 51%
    18:00 +14°C° 0 mm 3 mps 750 mmHg 56%
    19:00 +13°C° 0 mm 3 mps 750 mmHg 61%
    20:00 +12°C° 0 mm 3 mps 750 mmHg 66%
    21:00 +12°C° 0 mm 3 mps 750 mmHg 69%
    22:00 +11°C° 0 mm 3 mps 750 mmHg 72%
    23:00 +11°C° 0 mm 3 mps 750 mmHg 75%

    Day after tomorrow, 19 January, Saturday

    Time Temperature Precipitation Wind Pressure Humidity
    00:00 +11°C° 0 mm 3 mps 750 mmHg 78%
    01:00 +10°C° 0 mm 3 mps 750 mmHg 81%
    02:00 +10°C° 0 mm 2 mps 750 mmHg 83%
    03:00 +10°C° 0 mm 2 mps 749 mmHg 84%
    04:00 +9°C° 0 mm 2 mps 749 mmHg 84%
    05:00 +9°C° 0 mm 2 mps 749 mmHg 84%
    06:00 +10°C° 0 mm 2 mps 749 mmHg 82%
    07:00 +10°C° 0 mm 2 mps 750 mmHg 80%
    08:00 +12°C° 0 mm 2 mps 750 mmHg 78%
    09:00 +12°C° 0 mm 3 mps 750 mmHg 67%
    10:00 +14°C° 0 mm 3 mps 750 mmHg 57%
    11:00 +17°C° 0 mm 3 mps 750 mmHg 46%
    12:00 +18°C° 0 mm 3 mps 749 mmHg 42%
    13:00 +18°C° 0 mm 3 mps 748 mmHg 38%
    14:00 +19°C° 0 mm 3 mps 748 mmHg 34%
    15:00 +18°C° 0 mm 3 mps 748 mmHg 37%
    16:00 +18°C° 0 mm 3 mps 748 mmHg 39%
    17:00 +17°C° 0 mm 2 mps 748 mmHg 41%
    18:00 +16°C° 0 mm 2 mps 748 mmHg 45%
    19:00 +15°C° 0 mm 2 mps 749 mmHg 49%
    20:00 +14°C° 0 mm 2 mps 749 mmHg 54%
    21:00 +14°C° 0 mm 2 mps 749 mmHg 57%
    22:00 +13°C° 0 mm 2 mps 749 mmHg 61%
    23:00 +13°C° 0 mm 2 mps 749 mmHg 64%

    20 January, Sunday

    Time Temperature Precipitation Wind Pressure Humidity
    00:00 +12°C° 0 mm 2 mps 749 mmHg 67%
    01:00 +12°C° 0 mm 2 mps 749 mmHg 71%
    02:00 +11°C° 0 mm 1 mps 749 mmHg 74%
    03:00 +10°C° 0 mm 2 mps 748 mmHg 75%
    04:00 +10°C° 0 mm 2 mps 748 mmHg 76%
    05:00 +10°C° 0 mm 2 mps 748 mmHg 76%
    06:00 +10°C° 0 mm 2 mps 749 mmHg 72%
    07:00 +12°C° 0 mm 1 mps 749 mmHg 69%
    08:00 +12°C° 0 mm 1 mps 750 mmHg 65%
    09:00 +14°C° 0 mm 1 mps 749 mmHg 55%
    10:00 +18°C° 0 mm 1 mps 749 mmHg 45%
    11:00 +20°C° 0 mm 1 mps 749 mmHg 35%
    12:00 +20°C° 0 mm 1 mps 749 mmHg 32%
    13:00 +21°C° 0 mm 1 mps 748 mmHg 28%
    14:00 +22°C° 0 mm 1 mps 747 mmHg 25%
    15:00 +21°C° 0 mm 1 mps 747 mmHg 26%
    16:00 +20°C° 0 mm 1 mps 748 mmHg 28%
    17:00 +18°C° 0 mm 2 mps 748 mmHg 30%
    18:00 +17°C° 0 mm 2 mps 748 mmHg 34%
    19:00 +16°C° 0 mm 1 mps 748 mmHg 38%
    20:00 +16°C° 0 mm 1 mps 749 mmHg 42%
    21:00 +16°C° 0 mm 1 mps 749 mmHg 43%
    22:00 +16°C° 0 mm 1 mps 749 mmHg 44%
    23:00 +16°C° 0 mm 1 mps 749 mmHg 45%

    21 January, Monday

    Time Temperature Precipitation Wind Pressure Humidity
    00:00 +15°C° 0 mm 1 mps 748 mmHg 46%
    01:00 +15°C° 0 mm 1 mps 748 mmHg 48%
    02:00 +14°C° 0 mm 1 mps 748 mmHg 49%
    03:00 +14°C° 0 mm 1 mps 748 mmHg 51%
    04:00 +13°C° 0 mm 1 mps 748 mmHg 53%
    05:00 +13°C° 0 mm 1 mps 748 mmHg 56%
    06:00 +13°C° 0 mm 1 mps 748 mmHg 54%
    07:00 +14°C° 0 mm 1 mps 749 mmHg 52%
    08:00 +15°C° 0 mm 1 mps 749 mmHg 50%
    09:00 +16°C° 0 mm 1 mps 749 mmHg 43%
    10:00 +19°C° 0 mm 1 mps 749 mmHg 35%
    11:00 +21°C° 0 mm 1 mps 749 mmHg 28%
    12:00 +22°C° 0 mm 1 mps 749 mmHg 27%
    13:00 +22°C° 0 mm 1 mps 748 mmHg 25%
    14:00 +23°C° 0 mm 2 mps 748 mmHg 24%
    15:00 +22°C° 0 mm 1 mps 748 mmHg 27%
    16:00 +21°C° 0 mm 1 mps 748 mmHg 30%
    17:00 +20°C° 0 mm 1 mps 748 mmHg 33%
    18:00 +19°C° 0 mm 1 mps 748 mmHg 37%
    19:00 +18°C° 0 mm 1 mps 749 mmHg 42%
    20:00 +15°C° 0 mm 1 mps 749 mmHg 47%
    21:00 +15°C° 0 mm 1 mps 749 mmHg 49%
    22:00 +14°C° 0 mm 1 mps 749 mmHg 51%
    23:00 +14°C° 0 mm 1 mps 749 mmHg 53%

    22 January, Tuesday

    Time Temperature Precipitation Wind Pressure Humidity
    00:00 +14°C° 0 mm 1 mps 749 mmHg 53%
    01:00 +13°C° 0 mm 1 mps 749 mmHg 54%
    02:00 +13°C° 0 mm 1 mps 748 mmHg 54%
    03:00 +12°C° 0 mm 0 mps 748 mmHg 59%
    04:00 +11°C° 0 mm 0 mps 748 mmHg 63%
    05:00 +11°C° 0 mm 0 mps 748 mmHg 68%
    06:00 +12°C° 0 mm 0 mps 749 mmHg 63%
    07:00 +12°C° 0 mm 0 mps 749 mmHg 58%
    08:00 +13°C° 0 mm 0 mps 749 mmHg 53%
    09:00 +16°C° 0 mm 1 mps 749 mmHg 46%
    10:00 +20°C° 0 mm 1 mps 749 mmHg 38%
    11:00 +22°C° 0 mm 1 mps 749 mmHg 31%
    12:00 +22°C° 0 mm 1 mps 749 mmHg 29%
    13:00 +23°C° 0 mm 1 mps 748 mmHg 26%
    14:00 +23°C° 0 mm 1 mps 748 mmHg 24%
    15:00 +22°C° 0 mm 1 mps 748 mmHg 26%
    16:00 +21°C° 0 mm 1 mps 748 mmHg 28%
    17:00 +20°C° 0 mm 1 mps 747 mmHg 30%
    18:00 +19°C° 0 mm 1 mps 748 mmHg 34%
    19:00 +18°C° 0 mm 1 mps 748 mmHg 38%
    20:00 +16°C° 0 mm 1 mps 748 mmHg 41%
    21:00 +15°C° 0 mm 1 mps 748 mmHg 41%
    22:00 +15°C° 0 mm 1 mps 748 mmHg 42%
    23:00 +15°C° 0 mm 1 mps 747 mmHg 42%
    Show more